Temp
15 15 14 14 14 15 14 14 14 14 14 14 14 13 13 13 13 13 13 13 13 13 13 13 12 13 13 13 13 13 13 13 13 13 13 12 13 13 12 12 12 12
15 15 14 14 14 14 14 14 14 14 14 13 13 13 13 13 13 13 13 13 13 13 13 13 13 13 13 13 13 13 13 13 13 13 12 12 13 13 13 12 12 12
14 15 14 14 14 14 14 14 14 14 14 13 13 14 14 14 14 14 14 13 13 13 13 13 13 13 13 13 13 13 13 13 13 12 12 12 13 13 12 12 12 12
14 14 15 15 15 14 14 14 14 14 14 14 14 14 14 14 14 14 13 13 13 12 13 13 13 12 12 13 14 14 13 13 13 12 12 12 13 13 13 12 12 13
14 14 14 15 15 14 14 14 14 14 14 15 14 14 14 14 14 13 13 12 12 12 12 13 13 12 12 13 13 14 13 13 12 12 12 12 12 12 13 13 12 12
14 14 14 14 14 14 14 14 15 15 15 14 14 14 14 14 13 13 12 12 12 12 12 13 13 12 12 13 13 13 13 13 13 13 13 12 12 12 13 13 12 12
13 13 14 14 13 14 14 14 14 15 15 14 14 14 14 13 13 13 12 12 12 12 12 12 12 12 12 13 13 13 13 13 13 13 13 13 12 12 13 13 13 12
13 13 14 13 13 13 14 14 14 15 15 15 15 14 14 13 12 12 12 12 12 12 12 12 12 11 11 12 13 13 13 13 13 13 12 12 13 13 13 13 12 12
13 13 13 13 13 13 13 14 15 15 15 15 15 14 13 13 12 12 12 12 12 12 12 12 12 12 11 12 12 13 13 13 13 13 12 12 12 13 13 13 12 12
13 13 13 13 13 13 13 14 15 15 15 15 14 14 13 13 13 12 12 12 12 12 12 12 12 12 12 12 12 12 12 13 13 13 13 12 12 13 13 13 12 12
13 13 13 13 13 13 13 14 14 15 15 14 14 13 13 13 13 12 12 12 12 12 12 12 12 12 12 12 12 12 12 12 13 13 13 13 13 13 13 13 12 12
12 13 13 13 13 13 13 14 14 14 14 14 14 13 13 13 13 12 12 12 12 12 12 12 12 12 12 12 12 12 12 12 12 12 13 13 13 13 13 13 13 12
13 12 13 13 13 13 13 14 14 14 14 14 13 13 13 13 13 12 12 12 12 12 12 12 12 12 12 12 12 12 12 12 12 12 12 12 12 13 13 13 13 12
13 12 12 13 13 13 13 13 13 14 14 13 13 13 13 13 12 12 12 12 12 12 12 12 12 12 12 12 12 12 12 12 12 12 12 12 12 12 12 12 12 12
13 12 12 12 12 12 13 13 13 13 13 13 13 13 13 12 12 12 13 12 12 12 12 12 12 12 12 12 12 12 12 12 12 12 12 12 12 12 12 12 12 12
13 12 12 12 12 12 12 12 12 12 13 12 12 12 12 12 12 12 13 12 12 12 12 12 12 12 12 12 12 12 12 12 12 12 12 12 12 12 12 12 12 12
12 12 12 12 12 12 12 12 12 12 12 12 12 12 12 12 12 12 12 12 13 12 12 12 12 12 12 12 12 12 12 12 12 12 12 12 12 12 12 12 12 12
11 11 12 12 12 12 12 12 12 12 12 12 12 12 12 12 12 12 12 12 12 12 12 12 12 12 11 11 12 12 12 12 12 12 12 12 12 12 12 12 12 12
11 11 11 11 12 12 12 12 12 12 12 12 12 12 12 12 12 12 12 12 12 12 12 12 11 11 11 11 11 11 11 11 11 12 12 12 12 12 12 12 12 12
11 11 10 11 11 11 11 11 12 12 12 12 12 12 12 12 12 12 12 12 12 12 12 12 11 11 11 11 11 11 11 11 11 11 11 11 12 12 12 11 11 11
10 10 10 10 10 11 11 11 11 12 12 12 12 12 12 12 12 12 12 11 11 11 12 12 11 11 11 11 11 11 11 11 11 11 11 11 11 11 11 11 11 11
10 10 10 10 10 10 11 11 11 11 11 11 11 11 11 12 11 11 11 11 11 11 11 11 11 11 11 11 11 11 11 11 11 11 11 11 11 11 11 11 11 11
8 9 9 9 10 10 10 10 10 11 11 11 11 11 11 11 11 11 11 11 11 11 11 11 10 10 10 10 10 11 10 10 10 10 10 10 10 10 10 10 10 10
6 7 8 9 9 9 9 10 10 10 10 10 11 11 11 11 10 10 10 10 10 10 10 10 10 10 10 10 10 10 10 10 10 10 10 10 10 10 10 10 10 10
5 5 6 7 8 8 8 9 9 9 9 10 10 10 10 10 9 9 10 10 10 10 10 10 10 10 10 10 10 10 10 10 10 10 10 10 10 9 9 9 9 9
5 5 5 6 7 7 7 7 8 8 8 9 9 9 9 8 8 8 9 9 9 9 9 9 10 10 10 10 10 10 10 9 9 9 9 9 9 9 9 9 9 9
Height
1506 1507 1508 1509 1511 1513 1514 1515 1517 1519 1522 1524 1526 1527 1529 1530 1532 1533 1535 1536 1537 1538 1539 1541 1541 1543 1545 1546 1546 1546 1547 1547 1548 1549 1551 1552 1553 1555 1556 1558 1560 1562
1505 1505 1507 1508 1509 1511 1513 1514 1516 1518 1520 1522 1524 1526 1527 1529 1531 1532 1534 1535 1537 1538 1539 1540 1541 1542 1544 1545 1545 1546 1546 1546 1547 1548 1550 1551 1552 1554 1555 1557 1559 1561
1503 1504 1505 1507 1508 1509 1511 1513 1515 1517 1518 1521 1522 1524 1526 1527 1529 1531 1532 1534 1536 1537 1538 1540 1541 1542 1543 1544 1544 1545 1545 1545 1546 1547 1549 1550 1551 1552 1554 1556 1558 1559
1502 1503 1504 1506 1507 1507 1509 1511 1513 1515 1517 1519 1521 1523 1524 1526 1528 1529 1531 1533 1535 1537 1538 1540 1541 1541 1542 1543 1543 1544 1544 1545 1546 1547 1548 1549 1550 1552 1553 1555 1557 1558
1502 1503 1503 1505 1505 1506 1507 1509 1511 1513 1515 1518 1520 1522 1524 1525 1527 1529 1531 1533 1535 1537 1538 1540 1541 1541 1541 1542 1542 1543 1544 1544 1545 1546 1547 1548 1549 1551 1553 1554 1556 1557
1502 1503 1503 1504 1504 1505 1506 1507 1509 1512 1514 1517 1519 1521 1523 1525 1527 1529 1531 1533 1535 1536 1537 1539 1540 1541 1541 1542 1542 1542 1543 1544 1544 1545 1547 1548 1549 1551 1552 1553 1555 1556
1503 1504 1504 1504 1505 1505 1505 1506 1508 1511 1513 1516 1519 1521 1523 1525 1527 1528 1530 1532 1534 1535 1537 1538 1539 1540 1540 1541 1542 1542 1542 1543 1543 1544 1546 1547 1549 1550 1551 1552 1554 1555
1505 1505 1505 1505 1506 1506 1505 1506 1507 1509 1512 1515 1517 1520 1522 1524 1526 1527 1529 1531 1533 1534 1536 1537 1539 1539 1540 1540 1541 1541 1541 1542 1543 1544 1545 1547 1548 1549 1550 1551 1552 1554
1506 1507 1507 1507 1507 1507 1506 1506 1507 1508 1510 1513 1516 1518 1521 1523 1525 1527 1529 1530 1532 1534 1535 1537 1538 1539 1540 1540 1540 1541 1541 1542 1543 1544 1545 1546 1547 1548 1549 1550 1551 1552
1507 1507 1508 1508 1508 1508 1508 1508 1508 1508 1509 1511 1514 1517 1520 1522 1524 1526 1528 1529 1531 1533 1535 1536 1538 1539 1540 1541 1541 1541 1541 1542 1542 1543 1544 1546 1547 1548 1549 1550 1551 1552
1506 1507 1507 1508 1508 1508 1508 1508 1509 1509 1509 1510 1513 1516 1519 1522 1523 1525 1527 1529 1531 1532 1534 1536 1537 1539 1540 1541 1542 1542 1542 1542 1543 1543 1544 1545 1547 1548 1549 1549 1550 1551
1504 1505 1505 1506 1507 1507 1507 1508 1509 1510 1510 1511 1512 1515 1518 1521 1523 1525 1527 1528 1530 1532 1533 1535 1537 1538 1540 1541 1542 1543 1543 1544 1544 1544 1545 1546 1547 1548 1548 1549 1550 1551
1502 1504 1504 1505 1507 1507 1508 1508 1508 1510 1511 1511 1512 1515 1517 1520 1522 1525 1526 1528 1530 1532 1533 1535 1536 1538 1539 1541 1541 1542 1544 1544 1545 1545 1546 1546 1547 1548 1549 1549 1550 1552
1501 1503 1504 1505 1506 1507 1508 1507 1508 1509 1510 1511 1513 1515 1518 1520 1522 1524 1526 1528 1530 1532 1533 1534 1536 1538 1539 1540 1541 1542 1543 1544 1545 1545 1545 1546 1547 1548 1549 1550 1551 1552
1499 1502 1503 1504 1505 1507 1507 1507 1507 1508 1509 1512 1514 1515 1518 1520 1521 1523 1525 1528 1530 1531 1533 1534 1535 1537 1539 1540 1541 1542 1543 1544 1545 1545 1545 1546 1547 1548 1549 1550 1551 1552
1497 1500 1502 1503 1505 1507 1507 1507 1507 1507 1509 1512 1514 1516 1518 1519 1521 1523 1525 1528 1530 1531 1533 1533 1534 1536 1538 1539 1541 1542 1543 1544 1545 1545 1546 1547 1547 1548 1549 1550 1551 1552
1496 1498 1499 1502 1505 1507 1507 1507 1506 1507 1509 1511 1513 1515 1517 1518 1520 1523 1525 1527 1529 1531 1532 1533 1534 1535 1537 1539 1540 1542 1543 1544 1544 1545 1546 1547 1548 1548 1549 1550 1551 1552
1495 1497 1497 1498 1503 1505 1506 1505 1505 1507 1509 1511 1512 1514 1515 1518 1520 1522 1524 1526 1528 1530 1531 1533 1534 1535 1537 1538 1540 1541 1542 1543 1544 1545 1546 1547 1547 1548 1549 1550 1550 1551
1492 1494 1495 1497 1500 1503 1504 1503 1504 1505 1507 1509 1510 1512 1514 1517 1519 1522 1524 1526 1528 1529 1531 1532 1533 1535 1536 1538 1540 1541 1542 1543 1544 1545 1546 1546 1546 1547 1548 1549 1549 1550
1488 1491 1493 1496 1497 1499 1502 1503 1503 1503 1505 1507 1509 1511 1514 1516 1519 1521 1523 1525 1527 1529 1530 1531 1532 1533 1535 1537 1539 1540 1541 1542 1544 1544 1545 1545 1546 1546 1548 1548 1549 1550
1486 1487 1490 1492 1493 1496 1499 1502 1502 1502 1504 1507 1508 1511 1514 1516 1519 1521 1522 1525 1527 1528 1530 1530 1531 1532 1534 1536 1538 1539 1541 1542 1543 1544 1544 1544 1545 1546 1547 1548 1549 1550
1485 1485 1487 1489 1491 1494 1497 1500 1501 1502 1503 1506 1508 1511 1513 1516 1518 1520 1522 1524 1526 1527 1529 1530 1530 1531 1533 1534 1536 1538 1539 1541 1542 1542 1543 1543 1544 1546 1547 1548 1549 1550
1484 1484 1486 1487 1489 1492 1495 1498 1500 1501 1502 1505 1507 1510 1513 1515 1518 1520 1522 1524 1525 1527 1528 1529 1530 1531 1532 1534 1535 1537 1538 1539 1540 1540 1541 1542 1544 1545 1546 1547 1548 1549
1486 1487 1487 1488 1488 1491 1495 1498 1500 1501 1503 1505 1508 1510 1513 1515 1518 1519 1521 1523 1525 1526 1527 1528 1529 1530 1532 1534 1535 1536 1537 1538 1538 1539 1540 1542 1543 1544 1545 1546 1546 1547
1493 1493 1491 1489 1489 1493 1496 1498 1501 1503 1504 1506 1508 1510 1513 1515 1518 1519 1521 1522 1524 1526 1526 1527 1528 1530 1532 1533 1534 1536 1537 1537 1537 1538 1539 1540 1541 1542 1543 1544 1545 1545
1498 1499 1496 1491 1491 1496 1498 1499 1502 1503 1504 1506 1509 1511 1513 1515 1517 1519 1521 1522 1523 1525 1525 1526 1527 1529 1530 1532 1533 1535 1536 1537 1537 1537 1537 1539 1540 1540 1541 1542 1543 1544
Wind_Speed
28 26 25 24 23 23 23 22 22 21 20 18 16 15 15 14 14 13 12 11 10 10 9 8 8 9 11 12 13 12 12 12 12 13 14 13 14 16 18 20 20 20
28 26 25 25 24 23 22 21 21 21 19 16 15 15 14 13 13 12 11 10 11 10 9 9 9 9 10 12 13 13 12 13 14 14 14 13 14 16 17 18 20 20
30 28 27 27 26 24 22 20 19 18 17 16 15 13 12 12 12 10 10 10 10 10 10 9 9 9 9 10 11 12 12 13 14 14 14 14 14 15 17 18 19 19
30 29 29 28 26 24 22 21 19 18 17 16 14 11 11 11 11 10 11 10 9 8 9 10 10 10 10 10 10 11 11 11 12 12 13 15 14 15 17 18 17 16
30 30 29 29 27 25 23 22 20 19 16 14 12 11 11 11 11 12 13 12 10 8 7 10 12 12 11 10 10 12 12 12 13 13 14 16 16 16 16 17 17 16
31 32 30 30 29 27 25 23 21 19 16 14 13 13 12 12 13 15 17 15 11 9 9 11 12 12 12 11 11 11 12 13 14 14 14 16 17 16 15 16 17 16
33 32 30 30 31 29 26 25 22 20 17 15 15 14 13 14 14 15 16 14 10 9 10 11 12 12 11 11 12 11 11 12 13 13 15 15 16 16 15 16 17 17
32 31 29 30 31 30 27 25 23 20 18 16 15 14 14 14 14 15 14 12 11 10 9 9 11 13 11 10 11 11 10 11 12 13 15 15 15 15 15 15 16 15
31 28 28 30 30 29 27 24 22 20 19 17 16 15 15 14 14 16 15 12 11 11 11 9 9 11 12 10 9 10 10 10 11 12 14 15 14 14 14 14 15 15
27 27 28 30 28 26 25 22 22 21 20 18 17 17 16 14 15 18 16 14 13 13 12 10 8 10 13 11 10 11 10 10 10 10 11 12 12 12 12 13 13 14
25 27 28 29 27 25 24 22 21 21 21 20 19 18 16 15 18 18 15 13 12 11 11 11 11 13 14 12 12 11 11 11 11 9 9 10 10 10 9 10 11 12
26 28 28 28 27 26 25 23 21 21 21 21 20 19 17 17 18 16 13 12 11 11 14 16 16 16 14 12 11 11 10 11 11 11 11 11 11 10 8 8 10 12
28 28 29 29 28 27 25 23 23 21 22 22 20 19 18 18 17 14 12 14 14 14 17 19 18 18 17 15 14 12 11 11 11 12 12 12 12 11 11 10 9 10
28 27 29 29 29 27 25 24 24 22 21 21 19 19 20 19 17 14 14 15 15 15 17 18 17 17 18 18 16 16 16 14 11 10 11 13 15 14 13 13 11 9
30 28 28 29 29 27 25 24 24 23 22 21 19 21 23 20 18 17 16 15 16 17 17 17 15 14 16 18 17 18 19 17 14 13 14 16 18 15 13 13 10 8
32 31 30 29 28 27 25 24 25 24 23 22 21 22 23 21 19 18 16 15 16 16 16 16 16 15 15 17 17 16 18 18 16 15 16 17 17 15 12 11 8 7
30 31 33 31 29 27 26 25 26 25 24 23 22 23 23 23 22 19 17 17 17 16 14 14 15 16 15 16 15 13 15 17 17 15 14 13 13 12 11 10 9 8
28 30 33 33 31 28 27 27 27 25 24 24 24 24 24 25 23 19 17 18 17 16 15 14 14 15 16 16 14 12 14 15 15 15 13 11 11 11 11 11 11 11
29 30 30 32 32 29 27 27 27 25 25 26 26 25 26 26 23 20 18 17 16 14 13 13 14 14 16 17 16 15 15 15 15 14 12 10 11 12 13 13 13 14
28 29 27 29 31 29 27 27 27 27 27 28 27 26 26 26 23 20 18 16 16 13 10 11 13 14 15 18 18 17 16 15 15 14 11 10 11 12 15 17 15 14
24 28 27 28 30 30 29 29 29 30 30 29 29 27 26 24 22 20 17 16 15 12 9 10 13 13 14 17 19 19 16 15 15 14 12 12 13 13 17 19 16 15
22 26 28 29 30 31 32 32 33 33 33 31 30 28 26 23 20 18 17 15 14 12 10 12 13 13 14 15 17 19 18 15 15 14 13 13 13 13 15 17 15 14
23 26 29 31 33 34 34 34 34 34 33 32 30 28 25 22 19 17 16 15 14 13 12 12 13 14 14 14 15 16 17 17 17 16 14 13 13 12 12 12 12 12
22 24 27 30 33 33 33 33 32 31 30 29 28 26 22 18 17 16 16 15 15 15 13 13 13 14 14 15 15 15 15 16 16 16 14 14 14 13 11 11 12 11
19 21 23 27 30 29 29 29 28 27 26 24 22 20 17 15 13 13 14 15 15 15 15 14 14 15 15 16 16 16 15 15 15 15 15 15 16 15 13 12 12 12
18 19 21 24 24 22 21 21 19 19 19 18 16 14 12 12 11 10 12 14 14 14 15 15 14 15 16 17 18 18 17 16 16 16 16 16 17 16 15 13 12 12
Wind_Direction
176 176 174 171 168 167 165 161 162 163 163 164 161 159 160 163 165 166 166 160 161 169 170 169 177 176 164 165 176 181 182 187 192 194 193 194 200 204 205 201 200 201
176 173 173 170 165 164 163 160 160 160 159 159 158 160 164 165 166 168 169 161 157 164 166 163 168 173 167 162 170 178 181 184 186 185 189 194 196 199 200 196 197 200
175 172 172 169 164 161 161 159 158 156 156 158 163 168 168 169 172 168 160 154 153 159 160 158 158 165 165 160 166 176 181 185 184 181 188 193 191 195 195 191 197 200
175 173 171 169 165 162 161 160 160 160 162 166 167 165 162 166 171 164 156 155 158 161 161 159 152 154 161 160 164 172 176 185 185 182 190 190 185 188 187 185 191 196
175 173 171 168 166 165 164 165 166 167 168 165 160 156 158 166 168 163 160 161 168 177 172 159 150 150 157 154 158 167 168 175 182 183 188 189 186 189 190 190 192 194
174 174 172 169 168 170 169 169 170 170 167 159 156 157 160 164 164 161 164 169 176 180 171 159 151 150 156 151 154 166 163 164 178 184 181 182 189 195 194 194 195 197
175 175 172 169 170 172 171 172 172 169 165 159 154 154 153 153 153 153 162 169 163 153 150 151 149 148 153 153 154 163 162 162 173 181 176 174 183 190 187 187 194 199
178 175 173 171 173 175 175 174 172 165 162 158 150 147 146 145 144 141 141 141 135 132 137 146 149 150 153 154 154 157 162 166 167 168 170 171 177 182 183 186 191 196
181 178 177 176 176 178 178 174 170 164 159 155 148 145 143 142 144 140 134 135 140 142 143 147 152 155 157 160 159 157 159 166 166 162 163 167 172 175 177 182 186 189
184 181 178 178 179 180 180 174 168 163 159 153 148 145 142 141 141 138 140 152 159 160 163 168 164 152 151 153 155 158 160 159 159 158 155 157 163 166 169 176 182 187
187 184 180 179 181 182 180 175 169 164 158 153 151 148 143 140 140 141 150 161 160 162 172 168 146 132 132 132 134 143 152 156 159 161 161 160 155 152 164 180 186 188
189 187 183 181 183 184 181 175 171 166 158 154 154 150 144 142 141 141 152 159 147 141 148 146 137 135 137 140 142 141 139 144 153 155 154 158 153 143 147 171 183 189
192 188 184 182 184 185 182 176 170 165 159 156 154 149 141 137 135 133 143 158 157 145 142 144 146 149 151 153 157 157 148 140 145 152 156 164 165 153 142 144 155 175
199 191 185 185 186 185 181 175 169 163 160 158 154 147 140 137 143 152 157 161 165 162 154 152 153 153 155 156 154 155 156 152 147 151 159 168 169 160 148 142 141 153
202 198 189 185 185 186 181 173 166 161 160 158 153 148 144 145 156 166 166 160 160 162 160 157 155 153 158 162 158 152 155 158 153 141 136 147 156 154 145 143 145 146
198 197 194 187 183 183 179 170 162 160 162 161 154 149 149 154 162 164 166 167 165 161 159 158 158 155 157 166 169 164 162 164 162 151 141 144 151 151 146 146 149 147
196 194 195 190 182 176 172 166 162 162 165 162 154 152 156 162 167 167 169 177 181 177 169 165 162 159 158 163 169 172 172 171 171 169 163 156 155 158 159 155 154 156
198 195 196 188 179 175 172 168 166 166 166 161 156 157 162 166 171 173 174 182 190 190 186 182 174 167 164 162 160 161 165 164 165 167 165 161 161 168 170 163 162 169
200 196 192 182 176 176 173 168 167 166 164 162 161 163 166 169 174 179 180 185 189 189 190 193 189 179 171 165 159 156 156 154 156 162 161 162 170 174 173 171 170 174
203 200 191 178 176 177 174 171 171 167 163 164 165 166 168 170 175 180 182 184 183 182 186 189 191 189 180 173 168 162 157 156 160 168 166 158 160 162 162 166 170 175
197 199 194 179 173 175 176 176 173 168 165 167 168 167 169 171 175 180 181 180 180 184 184 175 176 181 181 179 178 175 170 164 161 167 169 160 155 153 152 157 162 168
175 183 187 180 173 174 174 171 169 169 169 170 170 169 171 172 174 179 181 181 182 181 171 159 157 163 170 175 181 183 184 177 166 165 169 166 162 161 158 159 162 167
148 155 167 171 169 168 169 166 163 164 166 170 173 172 172 173 174 175 176 178 177 169 161 156 151 151 157 162 168 175 179 177 173 172 173 170 167 168 168 170 173 177
117 128 144 157 157 154 158 161 160 158 160 166 172 171 171 173 175 175 173 173 173 169 166 166 160 153 154 157 158 163 171 176 180 180 176 171 169 168 169 174 182 187
75 91 113 137 146 143 144 151 154 154 155 160 166 170 174 178 178 177 175 173 175 175 173 171 169 165 163 163 161 160 165 174 181 183 176 170 170 172 172 177 186 193
55 62 79 105 123 127 129 135 140 144 149 156 164 170 176 176 172 175 177 172 171 174 174 172 173 172 171 172 171 169 166 166 172 177 176 174 177 180 181 185 193 202